Theta_e
291 287 285 285 288 290 290 289 290 291 289 285 284 283 284 284 285 286 288 289 287 285 286 288 289 289 289 290 291 292 293 292 292 293 294 295 295 294 295 296 296 296 297 300 300 299 297 295 294 294 294 294 295 296 295 296 296 296 296 295 294 295 295 295 294 294 293 292 291 290 290 291 291 290 290 290 291 290 291 291 290 290 290 290 289 288
290 285 285 289 291 291 289 287 288 287 285 285 284 281 285 282 284 289 288 290 285 285 283 284 288 289 290 291 292 293 292 292 293 293 293 295 295 295 295 296 296 298 299 299 298 299 295 293 292 292 292 293 293 294 294 295 296 296 296 295 295 295 294 295 295 295 294 294 293 292 291 292 292 291 290 290 290 291 291 290 290 290 290 289 289 288
286 284 288 290 291 288 285 287 285 285 285 284 284 284 282 284 286 289 289 291 288 284 285 285 286 288 289 290 291 292 292 294 295 294 294 295 295 296 296 296 297 297 297 298 298 298 294 293 292 292 292 292 294 295 294 295 295 295 295 295 294 294 294 295 295 295 294 294 294 293 292 292 291 291 291 290 291 291 290 289 289 289 289 289 288 288
284 285 289 291 289 287 287 286 285 284 283 282 282 280 283 286 283 284 284 282 282 286 284 284 286 288 289 291 292 293 294 294 295 294 294 295 295 295 296 296 295 296 297 297 297 298 295 292 291 289 289 291 292 292 291 292 294 295 295 294 294 294 294 294 294 295 294 294 292 291 289 290 290 289 290 289 288 289 288 288 288 289 289 289 289 288
289 286 286 289 288 288 287 286 285 283 286 285 285 284 284 285 286 285 284 283 284 285 282 284 286 288 288 288 288 291 293 292 293 293 293 294 295 296 296 295 296 296 297 297 297 297 297 292 290 290 290 289 290 292 292 293 294 295 295 295 294 294 294 294 294 294 293 292 289 288 288 288 287 287 287 286 286 288 289 289 287 288 289 289 289 288
287 289 287 287 285 285 285 284 285 286 284 286 283 286 287 288 286 285 285 284 279 281 279 281 281 285 283 286 286 289 286 287 288 289 291 293 294 294 293 294 295 296 295 295 296 296 296 292 291 289 287 288 290 291 293 293 294 294 294 294 293 293 293 294 293 294 293 292 291 289 288 287 288 286 286 287 288 287 288 289 289 288 289 289 288 288
287 287 289 290 287 283 283 283 284 286 286 283 283 286 288 287 285 284 283 282 277 276 282 281 279 281 282 283 286 285 284 288 288 289 292 293 293 291 292 293 295 295 295 293 293 294 293 291 290 288 288 289 290 292 292 292 292 292 293 293 293 293 293 293 293 293 293 292 291 291 291 291 290 289 289 290 290 289 290 290 289 289 288 289 289 288
285 285 285 286 285 284 283 282 286 287 284 282 282 282 284 283 283 283 282 283 281 279 282 282 282 278 281 284 288 288 287 289 290 291 291 292 291 291 292 294 294 295 294 294 294 292 291 290 290 292 292 290 291 291 290 290 290 291 291 291 292 292 293 293 293 293 293 292 291 290 291 291 290 291 290 290 290 290 290 289 289 288 287 288 288 288
286 284 284 283 284 281 284 288 284 288 286 282 283 283 283 283 283 282 282 280 278 278 280 280 281 279 278 284 283 285 283 286 288 290 291 290 291 292 293 294 294 294 293 291 292 291 292 291 291 290 290 290 288 288 289 289 289 290 289 290 291 291 291 292 292 292 292 292 292 291 291 290 291 291 290 289 290 289 288 288 287 287 287 287 287 287
284 287 284 286 284 283 285 283 284 288 284 284 283 282 281 280 280 281 279 280 277 275 279 278 281 277 281 288 282 281 283 284 286 289 289 290 291 292 293 293 293 293 292 291 290 290 291 291 289 287 286 286 286 286 287 288 288 288 287 289 289 290 290 291 291 292 291 292 291 290 290 290 290 290 286 287 287 287 286 287 287 287 286 286 286 286
286 288 287 286 285 288 284 283 283 288 286 283 283 285 281 279 277 277 276 276 276 274 280 280 282 282 278 283 282 282 284 283 285 287 288 287 287 290 291 291 292 292 291 290 289 288 289 288 286 284 286 285 284 285 286 287 287 287 287 288 288 289 290 290 291 291 291 291 291 291 291 290 290 289 286 286 285 285 285 287 286 286 286 286 286 285
287 285 287 285 288 285 284 284 282 283 282 286 283 280 282 283 276 276 268 274 274 273 279 281 282 282 277 280 281 279 280 281 285 286 288 287 288 289 289 291 290 289 289 288 289 290 289 289 287 284 287 284 284 284 285 285 286 286 287 287 288 287 288 289 290 290 291 291 291 291 291 290 291 290 287 287 286 286 286 286 286 286 285 285 285 285
282 284 284 287 289 289 286 286 282 283 285 284 281 282 279 274 273 269 271 270 271 277 277 279 281 278 280 287 283 287 288 289 284 286 289 289 288 289 292 292 292 291 287 288 288 288 289 291 295 290 285 285 284 284 284 285 285 285 285 286 287 287 287 288 289 289 290 290 290 290 290 290 290 290 289 288 287 286 286 286 286 285 285 285 284 285
285 281 283 286 288 288 288 284 280 282 282 283 282 279 277 272 269 269 266 264 268 275 276 278 280 279 285 285 286 291 293 290 288 286 286 287 289 290 290 290 291 291 287 287 287 288 288 289 289 290 289 286 285 284 284 283 285 285 285 285 286 287 287 287 288 288 289 289 290 289 290 290 290 289 289 288 288 287 287 287 286 286 286 285 285 285
279 285 285 285 285 286 289 289 289 285 282 284 283 285 283 278 271 270 269 277 277 277 276 276 276 274 275 280 283 287 288 285 285 285 285 285 285 285 286 286 288 289 288 287 287 287 288 288 286 287 287 286 285 283 283 283 283 284 284 285 285 285 285 285 286 287 288 289 288 288 289 289 289 289 289 288 288 287 286 286 286 286 286 286 286 286
283 286 285 286 286 288 287 289 286 283 283 283 282 282 278 282 283 281 282 279 281 277 273 272 277 276 283 285 286 284 285 288 288 287 285 288 286 284 286 287 288 288 287 287 286 288 288 286 286 287 287 286 284 283 282 282 283 283 284 284 284 285 284 285 285 286 286 287 287 287 287 288 287 288 287 287 287 287 287 286 286 286 286 287 286 286
284 280 285 286 285 286 285 285 288 288 280 282 284 281 284 284 287 281 280 281 277 275 278 281 278 283 285 290 291 283 284 283 282 283 282 283 284 282 285 286 285 285 285 285 287 286 285 287 287 287 286 286 285 283 283 283 283 284 284 284 284 284 283 284 285 285 286 286 285 286 286 286 286 286 286 287 286 286 285 285 286 286 286 285 285 285
285 286 286 284 284 286 283 285 285 282 286 283 278 283 285 284 284 282 277 274 277 277 278 285 281 283 281 280 284 284 283 285 287 283 281 282 280 284 285 284 285 285 284 283 283 283 283 284 286 286 287 286 285 286 284 283 283 284 285 285 285 285 285 285 285 285 285 285 285 286 286 286 286 286 286 286 285 285 284 284 284 284 284 285 285 285
289 283 289 287 287 286 283 286 286 285 285 283 281 285 283 278 277 279 274 274 275 275 277 279 284 283 285 285 290 289 290 288 284 283 282 284 283 284 285 287 287 284 285 286 287 286 286 286 287 288 288 287 286 285 285 285 283 283 284 284 285 286 286 286 285 285 285 285 287 287 287 286 286 286 286 286 285 284 284 284 284 284 285 284 284 284
288 284 285 286 286 285 284 284 279 282 285 285 286 283 284 282 280 277 279 277 279 276 279 278 283 280 288 287 288 288 288 283 281 282 285 284 284 284 287 290 292 291 289 287 288 289 286 287 288 289 287 286 286 285 284 283 283 283 283 284 284 285 284 284 284 284 285 286 286 287 287 286 287 287 287 286 285 284 284 285 284 284 283 284 284 283
283 286 280 286 284 288 282 284 282 283 280 283 282 281 283 283 285 283 282 280 279 278 278 277 276 283 289 290 289 290 286 280 282 286 287 290 288 288 291 292 292 292 292 291 290 289 288 288 289 289 288 287 286 284 283 283 282 282 282 282 283 284 283 283 284 284 285 285 285 285 286 286 286 286 286 284 284 284 284 284 284 284 284 283 283 283
284 284 282 283 283 284 285 285 284 284 287 284 286 283 286 283 281 280 278 285 281 280 277 278 276 284 289 292 293 292 287 282 284 286 287 285 284 288 291 291 290 290 289 288 287 287 287 287 287 287 287 287 287 287 287 285 283 284 284 283 283 283 283 283 283 283 284 284 285 284 285 285 284 284 283 284 284 284 284 283 283 283 282 283 283 283
288 284 285 283 286 286 290 293 289 288 288 286 288 285 288 285 285 281 276 280 283 282 284 282 279 280 295 295 295 294 295 294 292 290 291 291 289 288 289 288 288 287 286 287 287 287 286 286 286 286 286 286 286 286 287 287 286 285 284 284 284 284 284 283 284 283 284 284 284 284 284 284 285 284 284 284 285 285 285 285 284 283 283 283 282 282
291 282 281 284 288 288 292 293 290 286 287 285 285 285 285 284 286 285 284 285 283 283 282 281 279 283 294 296 295 295 294 293 293 291 291 290 288 286 285 285 285 285 286 286 286 286 286 286 286 287 286 286 286 286 287 287 287 288 287 286 284 284 286 285 284 284 284 284 284 285 284 284 285 284 284 284 285 285 285 285 285 284 283 283 283 282
284 283 284 281 280 281 281 283 284 284 284 282 283 286 287 288 287 287 287 285 281 282 283 280 274 282 290 292 292 291 291 292 293 293 287 285 285 285 285 285 285 284 285 285 285 285 286 286 286 286 286 287 287 287 287 287 287 287 287 286 286 285 285 285 286 284 284 284 284 284 284 284 284 284 284 285 285 285 286 285 285 284 283 283 282 282
286 284 284 278 276 274 273 275 275 276 279 280 281 284 285 285 285 283 279 282 278 282 284 280 280 286 290 291 292 291 291 292 291 286 286 286 285 284 284 284 284 284 284 284 284 284 284 285 286 286 286 286 287 287 287 287 287 287 287 287 286 286 285 285 285 285 285 284 283 284 284 284 284 284 285 285 285 285 286 285 285 284 283 283 282 282
284 283 285 284 282 280 282 284 285 286 283 281 281 281 283 284 282 283 283 281 279 283 282 284 284 284 286 287 286 288 289 287 283 284 283 283 283 283 283 283 283 283 283 283 283 283 284 284 285 285 286 286 286 287 287 287 287 287 287 287 287 287 286 285 284 284 284 285 285 285 284 284 284 285 285 285 285 285 285 285 285 284 283 283 283 282
282 281 284 284 284 285 286 286 288 287 284 285 284 284 286 285 285 284 281 279 285 281 277 285 286 284 284 287 288 287 285 285 283 282 282 282 282 282 282 282 284 283 283 283 283 283 283 283 284 285 285 286 286 287 287 286 286 286 286 286 286 287 287 288 286 284 284 284 284 284 285 285 285 285 285 285 285 285 284 284 284 284 284 283 282 282
283 282 285 286 284 287 287 287 287 285 285 285 285 285 284 286 285 283 283 285 285 280 278 284 285 284 285 288 286 283 283 283 283 282 282 282 282 281 281 281 281 281 282 282 282 283 283 283 283 284 285 285 285 286 286 286 286 286 286 286 286 285 286 286 286 286 285 284 283 283 284 285 285 285 285 285 284 284 284 284 284 284 283 282 282 283
284 280 284 284 283 284 284 284 285 283 283 283 283 284 285 284 283 283 283 284 284 283 285 285 286 285 287 282 283 283 284 283 283 283 281 280 280 280 280 280 280 281 281 282 282 282 283 283 283 283 284 285 285 285 285 285 285 285 285 285 285 285 285 286 286 285 285 286 286 286 285 285 284 285 285 284 284 284 284 284 284 283 283 282 282 282
285 279 286 282 279 279 282 282 282 282 281 280 282 284 284 284 283 283 283 284 284 283 284 284 283 283 281 282 282 283 282 283 283 281 280 280 279 279 279 279 280 280 281 282 282 282 283 283 283 283 284 284 284 284 285 285 285 285 285 285 284 284 285 285 285 285 285 285 285 285 285 284 284 284 284 284 285 285 284 284 283 283 282 281 281 281
284 279 282 279 275 275 279 279 280 281 280 280 280 282 282 282 280 282 282 284 283 281 283 282 280 280 279 282 280 280 280 279 279 281 280 280 279 279 279 279 280 280 281 282 282 282 282 283 283 283 283 284 284 284 284 284 284 284 284 284 284 284 285 285 284 284 284 285 285 285 284 284 283 283 283 283 283 284 284 284 283 282 281 281 280 280
277 277 276 276 273 273 277 277 276 276 275 272 274 278 281 282 283 284 285 282 278 279 277 278 278 278 279 280 277 278 278 278 278 280 281 281 281 280 279 279 280 280 281 282 282 282 282 282 283 283 284 285 285 285 285 285 285 284 285 284 284 285 284 284 284 284 284 284 284 284 284 283 283 282 282 282 282 282 282 282 282 281 281 280 281 280
276 276 275 277 271 271 275 274 272 270 265 267 278 279 281 280 280 279 279 276 278 278 276 279 278 280 279 279 277 277 277 277 279 281 282 280 280 279 279 280 280 281 281 282 282 282 282 282 283 283 284 285 285 285 285 285 285 285 285 285 285 285 285 284 284 284 284 284 284 284 283 283 282 281 281 281 281 280 280 280 280 281 281 280 279 279
276 275 273 271 271 269 271 267 269 264 266 273 277 278 277 277 276 275 275 277 278 279 279 279 279 278 279 279 279 278 279 280 280 280 282 281 280 279 279 280 280 281 280 281 281 281 282 282 282 283 283 284 284 284 285 284 284 284 284 284 284 285 284 284 284 284 284 284 284 283 283 282 281 281 280 280 279 278 278 279 279 280 280 279 279 279
274 273 269 268 269 268 268 267 262 262 273 277 278 277 278 277 277 275 274 275 275 278 279 275 279 278 279 279 280 280 280 280 280 280 282 281 281 279 280 280 281 281 281 281 281 281 281 281 282 282 283 284 284 283 283 283 283 282 282 284 284 284 284 284 284 284 284 284 283 283 283 282 281 281 281 280 279 277 278 278 278 279 279 279 279 279
278 276 272 270 276 266 267 266 267 273 273 275 273 276 273 272 273 271 268 275 272 274 278 277 279 278 278 279 281 280 280 280 277 277 281 280 281 281 281 281 282 281 282 282 281 281 282 281 282 282 283 283 282 282 282 282 281 281 282 282 282 282 282 283 283 283 284 283 283 283 282 282 281 280 280 280 279 278 278 279 278 278 277 277 278 279
280 275 276 273 270 276 268 268 268 267 264 267 271 275 277 276 276 278 276 272 274 272 276 278 277 278 277 279 279 279 279 274 271 275 280 279 280 280 281 282 282 282 281 281 281 281 281 281 282 282 282 281 280 280 281 280 280 280 280 280 280 280 281 281 281 282 283 283 283 283 282 282 281 280 280 279 279 279 279 278 278 278 277 277 277 277
278 279 277 274 272 274 271 269 268 268 269 273 271 272 275 278 279 279 275 268 276 272 274 279 277 278 278 278 278 279 273 269 270 274 277 278 279 280 280 280 280 280 280 280 280 280 280 280 280 281 281 279 278 279 279 278 278 278 278 278 278 279 279 279 280 281 282 283 284 283 282 282 281 281 280 279 279 278 277 277 277 277 276 276 277 277
266 268 273 271 271 270 268 267 265 269 266 273 269 270 273 276 277 276 266 267 273 271 274 278 277 277 279 278 278 275 272 268 270 274 277 277 277 278 279 279 279 278 279 279 279 279 279 279 279 279 278 278 277 278 277 277 277 277 277 277 277 277 277 278 279 281 282 283 284 283 282 282 281 281 280 280 279 278 277 277 275 275 275 275 276 276
263 263 263 265 265 267 270 265 264 264 274 270 272 274 275 276 273 262 262 266 271 272 274 278 278 278 278 276 275 269 273 275 275 276 276 277 276 276 276 276 276 277 277 277 277 280 277 277 277 277 277 276 276 276 276 276 275 275 275 275 275 275 276 277 278 279 281 283 282 281 281 281 281 280 280 280 279 279 277 276 276 274 273 273 273 272
263 262 262 264 263 265 266 265 266 268 273 272 273 274 275 271 260 264 269 273 272 275 275 278 279 279 278 277 275 275 276 276 276 275 276 276 276 276 276 276 275 275 276 276 276 276 275 275 275 275 275 274 274 274 274 274 274 274 273 273 273 274 276 276 276 277 279 279 278 278 278 279 280 281 280 279 278 277 277 276 275 275 273 272 271 271
265 265 262 263 265 266 267 264 265 262 270 270 272 273 274 264 265 273 273 273 275 275 274 275 278 278 278 276 276 276 276 275 275 276 276 276 276 276 276 275 275 275 274 274 274 273 273 273 273 273 273 273 273 272 273 272 272 272 272 271 272 274 274 274 274 276 277 276 275 275 275 275 277 279 280 279 278 278 277 276 274 274 273 272 271 271
270 263 262 265 268 264 263 262 260 263 270 273 271 265 268 273 275 274 272 273 274 275 273 276 276 278 278 277 276 275 275 275 275 275 275 275 275 275 275 275 274 274 274 274 273 272 271 271 271 271 271 271 271 271 271 271 270 270 270 270 272 272 272 272 274 274 272 271 271 271 272 273 275 277 279 278 278 277 277 276 274 273 273 273 272 271
270 269 270 268 268 266 261 266 270 271 273 276 275 275 276 276 276 274 275 274 274 275 276 275 276 277 277 277 276 275 274 275 275 275 274 275 274 274 273 274 273 273 273 272 272 272 270 270 270 270 269 270 270 269 269 270 269 269 268 269 270 269 270 271 270 268 268 268 268 269 271 272 273 275 277 278 278 277 276 276 274 273 273 272 272 272
273 271 271 269 269 273 273 274 276 274 275 276 277 278 276 277 276 274 273 273 274 276 275 275 276 277 276 275 274 274 274 275 274 274 274 273 273 273 273 273 272 272 272 271 270 270 269 269 268 268 267 268 269 269 268 268 268 267 267 268 268 269 269 267 266 265 265 266 267 268 270 270 272 273 275 278 278 277 277 277 275 274 274 273 272 272
271 273 271 270 273 270 265 275 273 273 275 275 276 277 276 274 275 275 274 274 275 276 276 276 276 276 276 274 274 274 274 273 272 272 272 271 271 271 271 271 271 271 270 269 270 269 268 268 267 267 267 266 268 268 267 267 267 267 267 267 267 267 266 264 264 264 264 264 266 267 268 269 270 272 274 276 277 277 277 276 275 274 274 273 272 272
269 274 271 272 272 270 269 274 275 275 275 276 276 275 275 276 276 275 276 275 275 276 276 276 274 274 273 271 272 271 271 272 270 270 270 270 270 270 270 270 270 269 270 269 269 268 267 267 266 266 266 266 267 267 266 266 266 266 265 265 265 264 263 263 263 262 262 263 264 265 266 267 269 271 273 274 276 276 276 276 275 275 274 273 273 272
273 274 261 269 270 272 274 275 275 275 274 275 276 276 276 277 276 276 276 275 274 274 274 273 272 272 271 272 271 269 268 269 269 268 268 269 269 269 269 269 269 268 268 268 268 267 266 266 265 265 265 265 266 265 265 264 265 265 264 264 263 262 261 261 262 262 261 262 262 263 266 267 269 271 272 273 275 276 277 277 276 275 275 276 276 275
273 271 274 270 267 268 268 272 274 268 268 274 275 275 274 274 273 273 273 272 271 271 271 270 271 270 269 269 269 268 267 268 268 268 267 268 268 268 268 268 267 267 267 267 267 266 265 265 264 264 264 264 265 264 263 263 263 263 263 262 262 261 260 260 260 260 260 261 262 263 265 267 269 271 272 273 274 275 276 277 280 278 276 276 278 279
273 274 273 270 269 268 273 275 276 275 275 275 276 277 276 273 272 272 272 271 269 268 267 267 267 268 268 268 268 267 266 267 267 267 266 266 267 267 267 266 266 266 266 266 265 265 264 264 264 263 262 263 263 262 262 261 261 261 261 261 261 260 259 259 259 259 260 261 261 263 264 266 267 269 271 272 274 274 274 275 276 280 281 280 279 279
Wind_Speed
2 6 8 9 12 15 13 10 16 16 6 4 1 3 10 11 12 8 15 10 2 7 10 18 21 18 15 12 12 15 16 14 13 18 20 18 15 13 15 18 19 18 20 20 14 11 6 6 7 7 8 9 9 10 10 12 12 13 15 12 15 13 12 12 12 12 13 13 10 8 12 14 12 11 11 10 10 11 11 11 11 11 10 10 10 10
2 6 7 13 16 14 7 6 6 6 4 4 6 5 13 5 15 14 10 7 0 1 4 5 16 20 19 15 13 14 13 21 21 17 19 23 17 14 15 19 21 20 13 12 12 13 3 5 6 6 7 6 8 9 9 13 15 14 13 15 14 10 13 14 15 15 14 15 16 17 17 15 13 12 13 13 11 12 10 10 10 10 10 11 11 10
4 8 13 17 12 1 2 0 2 4 6 6 8 8 8 11 11 16 13 14 7 1 14 7 17 18 12 13 13 14 19 20 19 13 12 19 22 17 16 18 18 16 18 14 13 11 5 6 7 6 7 8 11 10 13 13 11 11 12 12 10 12 13 14 14 12 14 12 10 10 8 10 8 7 8 7 7 7 9 9 9 9 9 11 10 11
6 6 19 15 2 4 6 0 0 1 3 5 6 4 13 5 2 12 1 3 2 2 9 9 20 22 9 16 21 20 20 18 15 12 11 16 21 21 23 14 8 16 17 17 14 14 8 5 5 3 4 6 6 6 6 6 11 10 12 12 13 13 13 12 12 12 8 8 5 3 3 4 5 5 5 5 6 7 7 9 9 10 11 11 12 12
15 3 2 2 7 8 10 6 4 5 13 6 10 8 9 11 13 10 7 6 7 6 3 11 15 18 9 11 7 13 12 11 14 14 14 17 20 24 11 10 15 15 17 18 19 15 12 5 5 4 5 3 6 7 8 8 11 10 15 15 15 13 14 13 13 13 9 8 6 5 5 5 6 5 5 5 5 9 9 9 10 12 10 12 12 13
11 7 2 1 2 5 5 5 7 8 12 9 5 11 17 16 12 10 10 7 6 7 5 5 11 14 2 5 7 7 3 3 6 8 17 22 21 9 8 14 15 14 9 12 16 16 11 6 5 3 4 5 7 8 9 10 12 10 10 10 11 10 10 12 14 14 13 13 13 12 10 10 10 8 10 15 17 12 12 15 11 11 14 14 13 12
6 3 5 9 6 3 3 4 6 8 12 7 8 11 14 11 8 8 11 4 5 2 2 2 1 20 2 3 7 7 2 8 9 11 18 18 11 3 9 10 15 13 11 6 8 9 9 6 5 4 5 8 8 11 8 6 7 7 7 8 11 11 11 11 12 14 12 13 13 17 17 16 17 17 15 13 10 13 13 11 13 13 11 12 13 12
2 2 1 1 3 4 3 6 7 12 5 8 2 4 6 6 6 6 4 5 8 2 5 2 3 6 22 4 11 9 5 12 13 15 17 13 8 9 10 13 15 11 9 8 10 6 5 6 5 8 7 7 11 6 2 5 5 7 8 9 11 9 10 11 12 15 14 15 14 14 13 12 13 15 14 12 13 11 9 10 10 8 9 9 10 10
6 3 4 3 2 5 8 9 4 13 8 6 1 7 2 5 5 2 4 5 2 4 10 3 2 4 9 6 3 3 5 10 12 17 13 7 9 10 13 15 13 9 7 5 7 8 8 8 7 6 7 6 5 4 3 4 5 5 5 6 7 8 8 9 12 14 14 13 13 14 12 12 11 9 6 6 5 7 7 10 8 9 9 9 9 10
2 3 7 9 7 7 8 3 10 12 5 4 5 6 5 5 4 2 3 3 2 2 13 5 4 4 16 15 5 4 0 7 11 11 10 8 7 11 12 13 11 8 6 3 3 6 9 8 7 5 5 5 4 2 2 2 3 4 4 6 7 8 8 8 11 12 14 13 12 12 13 14 11 8 4 6 7 7 7 10 10 9 9 9 9 9
3 4 4 4 7 6 4 1 4 11 6 4 3 2 2 4 2 3 5 2 2 4 11 14 10 8 11 5 8 7 7 4 4 4 10 3 3 8 9 8 8 8 5 7 9 5 7 7 8 5 5 4 2 0 2 4 5 5 6 6 8 8 8 9 12 13 15 14 13 14 15 15 14 11 8 8 8 7 7 10 10 10 9 8 10 8
2 0 1 5 1 3 3 2 3 1 2 1 1 1 5 4 6 2 3 2 3 9 6 12 15 10 10 4 2 4 2 4 4 4 11 7 6 7 8 8 5 5 5 5 6 10 9 10 7 5 7 5 4 2 0 2 4 5 6 7 8 7 8 8 11 12 14 13 14 13 14 15 14 13 11 13 13 12 13 11 11 9 8 9 8 9
2 8 3 2 3 10 3 1 3 3 2 4 3 2 0 5 7 3 2 1 5 11 3 3 6 2 18 14 3 10 10 12 8 7 7 9 8 9 9 10 11 10 6 6 7 7 8 10 14 7 5 8 6 4 3 2 1 0 2 5 9 10 9 11 11 14 14 14 15 14 13 12 11 12 13 13 12 12 13 12 11 11 12 9 10 12
8 1 3 5 1 4 8 7 2 1 3 7 6 5 5 2 3 5 4 2 6 6 3 4 2 8 11 8 8 13 17 6 4 8 7 8 10 9 8 10 11 11 6 6 7 8 8 9 10 14 13 8 7 5 5 3 1 2 3 5 7 8 7 8 9 12 13 16 15 12 12 12 11 12 12 11 11 11 10 11 13 14 14 14 16 15
7 9 5 6 4 5 10 11 12 6 9 12 4 12 10 8 4 5 4 10 7 4 2 3 4 8 0 5 1 8 8 6 5 5 3 4 5 5 7 8 9 7 7 6 6 6 6 7 5 6 7 8 6 4 3 3 3 2 4 4 6 6 6 7 8 8 11 11 11 11 11 12 10 11 10 11 10 10 11 11 12 12 11 13 13 14
9 11 5 3 2 7 10 4 4 6 3 3 4 4 2 9 6 9 8 5 9 3 1 2 8 4 7 2 5 6 7 9 9 7 5 10 3 3 5 6 6 6 6 7 7 8 9 7 7 9 9 6 5 4 3 3 3 3 4 4 5 5 5 6 6 6 6 7 6 8 10 11 10 9 8 8 9 10 11 12 13 13 13 12 11 10
0 6 2 0 2 6 5 2 2 5 5 2 6 7 8 2 6 2 3 5 1 0 14 4 7 9 6 13 10 4 1 3 3 4 4 5 4 1 2 5 6 6 6 6 7 8 10 11 10 7 8 9 6 4 5 5 5 7 6 6 7 7 5 7 8 9 8 8 7 9 8 7 7 8 9 10 8 8 7 8 9 10 10 8 9 10
8 8 1 5 3 5 1 0 1 2 2 7 3 6 1 2 2 3 6 1 6 11 10 7 15 9 3 13 3 4 7 5 8 5 6 4 3 5 4 4 5 6 6 5 5 6 6 6 8 9 8 7 9 10 7 5 4 5 6 7 9 8 11 11 10 10 9 9 9 9 10 10 10 10 9 8 8 7 7 7 7 7 8 11 8 8
2 10 9 5 6 2 2 1 5 0 1 4 5 1 2 4 2 2 4 6 8 12 7 5 10 14 9 17 14 16 15 11 5 5 5 5 5 5 7 10 8 6 6 7 8 8 8 8 10 11 10 11 10 9 10 10 6 6 5 5 6 10 10 9 7 7 8 9 10 11 13 13 12 11 11 9 7 8 9 10 10 10 9 6 9 10
1 7 4 2 3 1 1 3 5 2 1 1 0 2 1 1 3 2 6 1 1 11 8 8 7 10 5 7 12 15 13 4 4 5 6 5 6 4 7 10 12 14 11 8 9 10 8 9 11 12 10 11 11 10 8 7 9 9 7 6 7 8 7 7 6 5 8 9 9 10 8 10 11 11 11 10 9 9 11 12 10 9 8 11 8 10
4 3 11 2 2 1 2 4 7 8 5 0 1 3 1 2 2 2 2 3 5 7 7 8 9 5 10 6 10 16 6 3 2 2 6 10 10 10 10 11 9 10 12 12 11 10 9 11 11 12 11 9 8 7 6 5 4 3 3 4 5 7 6 4 3 4 6 7 10 9 9 9 8 9 6 6 7 9 8 7 9 10 10 7 11 11
1 2 8 3 3 6 5 2 6 5 6 6 8 7 8 7 6 9 11 3 4 6 7 7 15 5 5 4 9 12 4 5 4 3 6 5 4 6 8 9 10 12 12 12 10 11 12 11 11 12 13 13 13 14 14 10 8 9 9 7 6 5 5 5 4 5 5 5 5 7 8 8 6 5 5 7 7 9 8 8 9 9 7 12 10 11
3 1 2 7 7 10 11 11 6 5 3 3 5 7 8 4 4 6 12 6 5 8 8 12 11 11 3 7 11 12 14 12 7 7 9 7 5 6 9 11 13 13 13 14 15 12 9 8 9 9 11 13 13 13 12 12 11 9 8 9 10 10 10 5 6 5 5 7 7 9 8 8 9 7 7 9 10 11 12 12 12 10 13 13 11 11
7 1 1 10 8 9 13 13 6 3 2 2 4 1 1 7 11 13 13 10 11 8 9 8 12 3 10 10 11 10 11 11 11 6 10 12 14 14 14 15 14 14 14 13 14 14 14 13 12 14 14 12 11 12 13 12 11 10 9 8 6 9 12 12 7 7 7 8 9 9 7 9 9 8 9 10 11 12 13 12 11 10 12 12 10 12
3 3 3 6 4 5 3 4 3 4 2 2 4 6 7 8 8 10 8 3 9 10 12 13 16 7 2 2 5 6 7 8 13 14 16 13 12 12 12 11 12 12 14 16 16 15 16 19 19 17 17 18 18 15 13 12 12 12 12 11 10 8 8 9 9 7 7 8 10 9 9 10 8 9 11 12 12 14 14 12 12 10 12 10 11 11
3 3 4 8 8 13 12 11 9 4 4 2 1 5 6 8 12 7 7 7 14 3 14 14 14 8 4 3 5 7 9 10 10 16 12 13 12 12 12 12 13 13 13 14 16 18 18 14 15 17 18 16 17 17 17 18 16 14 12 12 9 10 10 10 9 10 9 7 8 10 10 10 8 11 13 14 15 16 14 12 11 11 10 11 13 11
2 2 5 11 13 15 13 11 4 3 3 4 5 2 6 4 4 5 6 8 12 11 14 12 13 15 10 7 6 5 9 12 12 13 13 12 13 12 12 11 11 11 12 13 13 13 15 18 18 17 16 15 15 16 15 16 16 16 16 16 15 13 11 10 8 10 10 11 10 11 9 9 11 12 13 14 15 13 11 12 12 12 13 12 13 14
0 3 6 10 13 14 12 13 13 11 15 12 12 12 10 10 10 13 11 15 10 12 17 6 12 13 10 8 9 11 12 8 9 9 9 10 10 10 9 11 15 16 16 14 15 17 15 15 15 16 16 16 15 16 16 15 14 14 14 14 14 14 13 11 10 8 9 9 10 10 12 12 11 11 13 12 12 12 12 11 11 13 12 11 14 14
1 6 5 11 14 11 12 13 9 9 8 8 10 10 13 13 14 16 19 16 12 13 14 13 15 19 14 11 6 8 9 8 8 9 8 5 6 7 9 11 12 12 14 15 15 15 15 15 14 16 15 15 15 16 16 15 16 15 16 14 14 12 12 11 9 9 8 8 7 9 10 11 10 10 11 12 11 11 11 12 12 11 11 12 13 13
3 5 8 11 12 6 9 11 9 10 10 11 11 12 13 15 17 17 17 14 15 19 19 19 17 20 14 4 6 9 6 5 4 4 3 6 8 7 8 9 9 9 11 13 13 12 12 13 13 13 14 14 15 15 15 15 15 15 15 15 16 16 15 14 14 13 12 11 11 10 8 8 9 10 11 10 11 11 11 11 11 10 11 13 13 11
4 6 8 6 8 11 11 12 11 12 10 14 12 12 13 15 18 17 15 16 19 18 15 18 17 13 8 3 5 5 7 3 2 3 6 4 4 7 8 9 9 9 9 10 12 13 12 12 12 12 13 14 14 13 13 12 12 13 14 14 15 15 15 13 14 15 14 14 13 12 11 9 8 8 10 11 10 10 9 10 10 10 11 10 10 11
4 5 4 6 9 13 12 12 12 11 11 11 13 14 18 20 18 12 13 12 13 14 13 12 12 5 4 6 4 6 7 9 9 6 2 3 3 5 7 9 8 9 9 8 8 10 12 13 13 13 13 12 12 12 12 14 13 12 13 13 14 14 13 13 13 14 14 13 14 14 13 12 11 9 9 8 9 10 10 9 8 9 10 9 10 10
3 4 6 6 9 10 14 9 9 7 11 14 14 19 18 15 15 18 17 3 4 2 3 9 3 6 2 5 6 7 8 9 8 8 5 3 4 5 9 9 8 8 7 8 8 8 10 11 11 12 12 11 11 11 12 12 12 12 13 14 13 12 12 12 13 13 13 13 13 15 14 13 12 11 10 8 8 8 7 7 8 9 8 11 11 9
5 7 9 6 9 10 12 9 4 6 13 16 6 2 3 12 10 14 8 2 4 4 1 3 4 4 3 5 5 6 8 7 8 7 2 1 5 8 9 8 8 7 7 7 7 8 8 8 9 10 10 10 10 10 11 10 11 12 12 12 13 13 13 13 14 12 12 12 13 13 13 13 12 12 12 10 8 7 7 7 9 9 8 7 6 10
12 8 10 3 7 9 7 5 9 13 14 3 2 0 3 5 6 4 5 2 0 2 4 4 5 4 2 1 1 4 6 5 5 8 4 3 2 8 10 10 10 8 11 9 9 8 7 8 9 9 9 9 9 10 11 11 11 13 13 12 13 13 13 14 14 14 12 13 14 14 14 13 12 12 11 10 8 7 7 8 8 7 7 7 10 11
11 11 4 3 3 3 2 5 6 8 5 1 0 1 0 5 6 8 3 4 1 2 0 2 2 4 2 3 3 5 5 8 6 8 5 2 3 6 7 10 10 10 10 9 9 10 9 9 10 9 10 9 10 10 10 10 11 12 14 13 13 14 13 12 13 13 12 13 14 15 15 15 15 14 12 11 10 8 8 7 7 8 6 6 7 7
12 6 3 7 6 9 5 7 13 8 15 8 3 2 2 0 1 1 2 1 5 4 2 4 3 5 3 5 5 6 6 5 6 6 4 1 1 3 4 8 8 9 10 9 8 9 8 6 6 8 8 8 9 11 11 11 12 13 13 12 12 12 13 14 14 13 13 12 13 14 14 14 14 14 13 11 10 10 9 9 8 7 4 6 7 8
10 12 8 9 6 9 7 7 7 6 9 2 1 5 2 3 2 2 3 3 4 5 3 5 6 7 5 5 6 5 5 4 9 2 4 1 3 3 5 5 7 8 7 8 7 7 7 6 5 6 6 8 9 9 10 11 12 13 12 12 12 13 14 14 14 14 13 14 13 13 13 13 13 14 13 11 11 11 10 8 6 6 5 7 8 9
6 9 8 9 5 6 8 9 9 8 5 5 7 4 4 2 1 4 3 4 3 3 4 8 9 7 7 7 6 4 1 6 7 7 3 2 4 4 7 7 5 7 7 7 7 9 8 6 7 7 6 7 10 10 9 11 12 12 12 12 12 13 13 14 14 14 15 15 13 12 12 12 12 12 13 12 11 9 9 9 8 7 4 7 7 9
5 3 7 10 8 6 4 6 8 2 3 3 4 3 5 0 1 1 8 4 3 4 5 7 9 8 7 7 6 3 4 6 7 8 8 7 4 5 5 8 8 7 7 7 7 6 7 8 8 8 7 8 10 8 9 10 10 11 11 12 12 13 14 14 15 15 15 15 13 11 12 11 12 12 12 13 12 10 9 7 6 6 6 7 7 7
2 3 3 7 6 8 11 8 4 5 1 1 3 5 5 2 1 2 12 4 4 1 6 6 8 8 7 8 6 6 8 7 7 8 8 9 8 7 6 5 7 7 9 8 8 6 6 8 8 9 8 7 8 8 7 8 9 10 10 12 12 13 13 15 15 16 16 13 13 14 14 12 12 13 13 11 11 10 8 6 7 6 6 8 7 6
3 2 7 1 5 8 7 8 10 6 4 3 5 6 3 3 1 10 2 1 2 6 3 7 8 9 8 9 8 8 8 7 6 5 7 10 11 9 8 9 8 8 8 7 7 5 5 7 8 8 9 7 7 8 7 8 10 11 11 11 12 12 13 13 15 16 15 14 15 15 15 15 15 13 12 11 9 9 9 7 6 6 7 7 6 7
4 1 4 4 3 1 1 4 4 6 1 4 2 6 1 5 8 3 4 4 4 6 6 5 6 9 8 10 10 10 7 7 7 8 9 9 10 12 11 10 11 11 11 11 12 8 6 9 11 10 11 10 7 6 6 6 10 11 10 12 13 11 12 13 14 14 13 14 16 17 17 17 18 16 11 11 9 9 10 7 6 7 6 6 7 8
2 3 2 4 4 7 6 7 5 4 2 3 2 2 3 7 7 5 4 9 4 5 5 5 6 8 9 11 10 9 8 8 8 9 9 9 10 10 10 10 10 11 10 9 8 9 5 8 10 12 12 11 7 6 6 6 10 11 12 13 10 10 12 13 12 11 14 16 17 18 18 17 17 16 13 12 10 9 10 8 7 7 7 7 8 8
4 7 5 9 3 3 5 6 7 2 2 7 5 8 10 13 10 5 6 7 7 6 4 4 8 9 9 10 9 8 8 8 11 9 10 11 10 10 11 12 12 12 12 11 12 10 7 10 12 13 14 15 14 9 5 5 9 13 16 11 6 11 12 11 11 14 17 18 18 18 16 16 15 16 16 13 10 10 9 9 8 8 7 7 8 8
3 2 0 1 7 5 4 9 12 5 8 14 13 11 12 12 9 5 5 5 6 8 6 8 8 10 9 6 6 7 9 10 9 9 9 8 9 12 12 11 12 12 11 10 10 10 8 9 10 12 15 17 16 13 9 9 8 14 16 11 9 11 11 12 15 16 19 18 17 16 17 17 18 16 16 14 10 10 10 10 8 9 8 8 9 8
7 2 2 5 9 8 11 10 3 7 11 11 12 13 9 5 9 5 4 6 8 9 10 7 9 9 8 4 7 9 9 8 9 9 8 8 11 12 13 13 13 12 12 13 14 10 10 10 12 14 15 17 18 14 10 11 12 13 12 12 11 11 12 14 16 17 17 17 16 16 15 15 16 13 15 13 10 9 10 9 8 9 9 9 9 9
8 6 7 12 13 9 15 15 13 9 11 12 11 11 14 13 9 7 7 7 8 8 7 8 4 7 3 5 6 4 8 8 7 8 9 10 11 12 13 12 13 14 14 12 12 10 10 12 13 15 15 16 17 14 12 12 13 13 12 11 12 12 14 17 17 16 18 18 16 15 16 16 20 19 13 14 11 10 10 9 9 10 11 11 11 11
5 5 3 3 6 12 14 13 13 13 10 13 16 13 11 11 11 10 9 8 7 7 8 4 2 4 2 6 2 2 6 10 7 6 8 12 13 13 12 12 13 13 15 16 14 10 12 12 14 14 15 18 17 13 13 13 13 13 13 12 11 10 13 16 17 17 18 17 14 13 14 15 13 15 14 14 13 11 11 11 10 11 12 12 10 12
3 12 10 2 8 12 13 14 10 8 9 10 9 8 5 5 5 7 6 5 4 5 4 5 6 1 2 3 3 3 6 9 10 6 9 12 14 16 15 14 13 14 16 14 11 12 14 13 13 14 15 17 14 13 14 16 16 14 10 10 11 11 13 15 16 15 17 14 14 13 13 11 12 10 12 11 12 12 12 13 18 14 12 12 14 20
10 13 7 9 10 13 14 15 13 13 11 10 12 12 7 1 2 4 5 4 3 3 4 4 7 9 9 6 2 4 6 9 12 10 11 12 15 15 14 14 15 16 17 15 15 15 14 14 13 13 15 15 13 14 15 17 16 14 11 9 10 11 13 14 13 14 16 16 13 13 16 13 13 11 11 11 11 10 12 12 11 21 26 22 15 16
Wind_Direction
118 162 173 198 217 223 229 197 215 230 245 310 357 252 259 263 276 264 267 274 271 304 241 260 269 271 269 259 265 269 282 276 258 272 274 272 266 260 263 265 263 260 255 261 270 273 255 227 221 216 205 212 211 211 201 201 201 198 197 185 199 191 180 177 177 181 178 180 180 182 193 199 190 188 187 188 193 192 195 188 187 182 182 176 173 173
93 202 227 220 222 227 237 224 251 287 318 275 284 275 269 243 275 259 286 283 47 237 261 233 277 273 273 273 266 267 270 270 264 255 269 275 270 262 259 263 265 261 272 275 276 272 254 231 222 212 207 197 203 221 201 202 201 199 191 194 195 175 185 188 187 185 185 190 188 185 192 193 185 181 185 197 195 196 191 186 185 183 180 175 177 173
200 208 228 230 233 340 38 138 186 211 253 259 244 269 294 265 264 278 262 275 276 165 281 276 267 267 270 268 260 251 250 255 258 254 247 273 279 271 265 257 265 285 276 276 271 274 246 230 227 211 212 211 211 208 202 206 195 194 195 199 183 187 187 193 189 183 194 191 190 191 191 187 183 198 201 194 187 180 184 183 182 180 180 177 178 177
266 246 239 240 223 266 271 105 112 276 234 229 249 269 251 274 321 297 174 360 337 218 301 296 291 284 260 252 249 247 250 250 264 268 250 249 264 266 256 268 294 272 280 283 278 279 267 223 238 241 246 230 225 224 216 203 198 196 200 194 188 188 189 187 191 192 189 182 172 155 116 150 144 172 163 155 154 171 166 183 182 188 183 181 183 179
224 218 242 214 208 203 240 241 240 259 266 208 217 240 274 262 244 239 282 333 313 284 258 300 291 283 217 243 248 263 252 264 265 267 266 255 249 253 283 305 260 263 271 280 287 284 285 298 301 256 259 261 234 226 217 203 203 201 202 196 189 185 186 185 181 180 165 146 134 115 86 96 84 77 139 148 187 187 185 181 191 193 183 186 185 183
272 270 141 94 133 187 206 264 231 220 264 259 204 206 236 255 276 270 284 344 359 319 339 36 330 305 202 186 228 268 12 264 258 242 251 252 250 272 290 271 282 264 248 264 280 286 303 10 325 293 269 240 238 236 226 212 212 205 203 190 186 182 182 184 180 173 166 172 168 161 159 168 178 180 180 195 197 179 187 199 189 188 192 187 187 184
227 256 180 231 208 131 158 212 236 168 243 287 266 206 235 246 252 269 279 355 292 245 315 48 84 291 187 201 245 248 246 261 266 231 245 253 270 302 267 272 270 277 293 267 262 299 344 330 325 278 252 237 237 238 225 223 221 214 201 190 185 183 182 179 176 173 172 176 181 185 188 186 186 192 204 202 185 186 198 192 190 195 188 189 186 187
187 293 80 54 128 154 149 253 231 168 218 263 235 188 209 226 231 244 237 198 252 262 281 174 167 247 299 297 212 219 201 239 249 257 256 264 291 284 274 267 271 289 279 309 315 343 322 297 274 279 250 237 235 248 221 231 223 207 196 183 186 184 184 181 173 177 181 182 186 190 196 197 201 204 202 187 192 192 185 186 189 181 189 190 192 183
157 206 164 135 123 132 196 214 147 162 164 218 242 151 173 211 217 154 169 201 228 24 300 139 93 298 257 254 20 154 210 257 261 260 273 321 305 288 279 277 281 292 315 351 333 336 318 302 293 270 275 274 293 291 235 226 222 213 198 187 182 186 181 180 177 179 185 186 186 191 193 202 213 211 203 181 182 183 171 180 173 177 182 187 192 188
292 202 206 163 141 207 219 182 163 157 191 251 130 86 86 85 76 138 131 140 331 40 276 170 181 231 279 288 99 15 248 267 254 273 277 253 261 273 279 283 297 311 328 4 2 317 301 306 300 284 282 299 279 252 202 198 175 182 180 186 181 189 181 177 181 183 187 189 184 191 199 204 204 194 167 154 174 177 170 184 181 182 180 186 187 189
230 352 154 118 199 225 158 183 165 186 178 118 96 88 8 40 36 30 71 98 50 259 258 169 194 177 281 280 165 128 209 201 263 285 279 280 285 273 268 277 293 309 342 349 330 297 296 296 280 267 277 264 294 34 148 159 162 168 174 182 189 191 178 179 183 184 190 192 192 197 198 200 197 189 169 166 179 170 174 189 186 184 185 178 189 181
223 120 158 254 63 100 101 95 25 349 122 137 88 123 24 307 17 35 342 38 194 270 241 185 181 185 212 302 307 244 258 217 232 273 285 319 299 285 295 296 304 310 335 339 331 326 322 316 307 328 318 333 336 351 41 151 158 166 176 175 186 192 189 183 186 188 194 195 202 204 199 199 198 185 182 187 186 183 185 186 184 181 171 187 184 187
261 201 236 287 235 171 162 174 308 39 69 97 94 52 217 276 27 322 39 285 190 223 279 195 147 348 244 246 296 292 287 261 208 217 245 263 288 294 295 316 318 310 341 342 316 303 317 324 322 335 342 342 347 346 343 346 349 355 193 188 187 198 191 192 190 193 194 196 203 202 202 205 198 195 194 194 189 185 185 184 180 177 188 178 185 197
277 260 159 227 331 203 140 164 251 251 181 129 150 159 109 275 241 253 266 249 297 290 264 175 214 244 273 298 217 240 258 287 269 217 232 242 253 281 307 311 311 317 347 322 316 320 319 333 335 326 335 343 334 341 334 327 243 219 215 212 211 213 198 197 199 200 199 204 202 198 201 202 197 202 197 197 195 188 189 185 186 186 186 187 197 191
311 296 248 153 241 184 176 195 192 168 162 191 147 155 187 173 160 255 195 246 238 236 347 277 135 233 128 240 245 226 265 278 272 249 266 285 265 277 285 299 301 314 329 328 328 326 325 332 311 300 313 324 324 318 301 291 280 264 236 218 222 222 215 208 211 211 215 213 208 205 205 203 201 202 197 200 196 185 187 190 190 193 191 196 198 196
215 248 263 239 303 147 178 229 98 106 99 201 161 57 71 228 125 226 222 249 280 287 294 230 212 203 229 241 263 229 262 278 285 298 295 284 317 327 317 303 310 321 325 329 344 351 356 355 349 346 336 317 299 288 265 245 230 239 245 240 242 241 235 220 214 222 227 237 238 230 216 213 206 205 200 199 198 197 191 190 192 194 195 199 190 190
279 275 268 326 57 182 196 133 206 137 231 208 105 202 217 133 149 288 293 248 142 341 251 203 284 273 292 289 292 350 19 295 331 308 332 291 296 303 290 348 328 328 323 326 342 359 351 352 350 338 320 321 312 277 243 234 213 207 207 211 219 222 228 226 220 212 207 213 220 228 231 226 220 216 212 209 205 199 193 193 199 198 201 190 187 188
240 267 227 118 260 252 171 177 53 352 138 107 192 238 76 171 112 162 234 338 223 237 254 221 257 271 357 281 354 2 4 306 331 345 315 308 337 33 348 302 299 304 304 303 333 357 336 327 325 320 317 309 314 316 307 278 258 233 216 209 212 215 219 217 208 211 209 205 211 219 222 220 217 216 217 211 206 194 185 197 197 195 188 198 187 177
131 272 261 236 195 187 51 105 320 323 4 178 186 260 141 241 255 281 86 245 237 242 265 223 261 270 263 273 294 287 282 296 308 328 354 353 355 324 321 324 323 326 336 340 339 339 349 336 333 331 334 333 329 327 322 323 322 307 296 281 251 239 230 220 211 213 219 212 215 211 212 211 213 213 213 211 194 184 195 199 199 199 198 172 179 180
37 262 296 328 102 186 35 106 231 211 357 70 30 314 150 109 215 186 195 206 303 266 259 247 215 256 233 256 266 276 273 247 275 338 349 312 324 312 329 332 333 334 331 332 344 349 348 340 346 349 349 339 339 338 332 329 331 327 322 319 314 313 323 321 301 293 256 242 229 224 219 223 218 217 214 209 200 200 201 200 195 195 190 197 178 187
259 153 253 189 316 325 263 192 220 159 164 120 127 260 236 200 206 91 313 229 232 266 246 271 251 236 237 249 262 269 262 213 190 287 326 335 339 340 336 332 327 328 347 6 9 8 9 359 358 1 5 2 355 358 345 338 318 276 298 297 287 288 283 265 258 274 274 303 290 292 261 243 231 231 223 217 214 216 216 208 202 200 199 167 194 181
226 247 238 335 322 220 239 226 174 185 173 179 186 213 211 220 269 262 261 139 223 213 240 235 252 225 251 238 277 283 257 189 224 271 304 294 305 314 311 316 346 5 6 11 27 27 16 18 13 10 8 10 14 14 12 357 349 345 335 316 302 290 279 276 259 241 257 259 259 263 270 284 286 267 234 224 216 219 214 210 209 203 182 200 196 185
156 196 293 247 233 255 258 256 207 195 180 186 188 228 202 194 179 220 257 221 237 227 245 255 277 234 239 293 279 287 298 293 303 326 318 330 338 342 347 6 18 29 21 11 10 18 28 20 14 14 16 16 15 11 10 11 11 355 332 326 322 318 304 277 270 259 256 258 252 247 243 244 244 237 234 229 228 225 219 215 209 194 199 202 193 191
96 162 167 257 255 270 271 275 298 162 146 326 300 277 106 218 207 230 238 255 263 261 258 263 248 290 172 217 257 279 296 307 310 348 352 13 32 33 33 29 20 17 14 12 12 10 7 9 12 16 16 17 15 9 7 5 7 11 5 344 320 317 312 315 296 276 271 263 258 256 249 242 242 239 238 236 235 233 227 220 215 204 208 205 192 194
293 260 225 293 292 290 278 330 321 33 58 188 224 240 234 262 276 268 277 355 275 234 249 258 260 249 284 285 296 309 302 308 313 15 43 45 28 28 24 23 20 16 15 13 11 7 8 13 10 5 2 2 2 5 8 9 9 10 5 357 348 328 311 309 311 297 274 270 272 265 256 255 244 241 239 237 237 236 233 225 221 210 212 201 200 198
246 215 266 257 257 270 279 265 265 277 230 203 272 255 243 211 238 261 263 246 254 211 232 247 264 256 260 301 293 288 298 311 16 40 27 45 35 23 21 16 15 16 13 11 9 10 9 4 4 5 3 1 1 359 357 357 359 1 4 1 355 346 333 324 322 311 301 281 265 268 263 261 251 243 241 238 239 238 234 227 222 215 211 203 206 197
215 325 237 245 247 255 259 264 282 353 296 271 265 274 281 268 221 220 270 266 255 270 254 255 274 286 279 299 293 319 9 14 21 25 36 22 23 20 17 18 16 15 13 9 7 3 3 6 3 359 359 358 356 357 356 355 353 355 355 355 355 354 346 331 320 306 301 295 289 284 270 252 245 241 241 239 239 239 235 228 221 213 213 203 205 201
107 234 231 254 250 262 271 278 284 285 277 276 280 281 288 282 280 277 259 260 270 284 265 253 270 280 292 311 323 353 353 17 44 47 33 32 23 23 11 10 10 9 8 5 6 7 2 357 356 356 354 353 353 351 352 352 351 351 352 350 350 347 346 346 335 311 296 291 288 283 281 276 264 254 247 245 243 238 233 229 223 219 214 202 208 207
252 256 254 262 263 258 264 273 276 281 269 281 284 289 285 284 277 266 263 263 263 255 275 290 287 282 284 291 14 44 20 22 44 46 47 31 24 23 23 19 12 6 360 2 357 358 358 354 352 349 349 348 347 349 349 349 347 346 345 347 347 345 341 337 333 329 318 299 282 275 271 273 270 263 258 250 246 241 234 228 224 221 214 209 212 209
280 252 249 254 279 289 286 279 280 275 278 272 267 265 265 267 268 264 265 269 267 265 265 269 270 270 286 34 42 40 26 23 69 70 50 38 24 20 22 18 16 5 1 354 350 349 348 347 345 345 342 343 345 345 345 346 345 343 342 341 342 341 339 340 338 339 337 339 337 327 307 280 271 267 264 261 252 244 237 230 224 218 216 216 214 213
231 269 335 341 307 290 286 280 273 268 283 283 281 275 266 260 261 263 273 270 267 265 269 264 265 270 67 18 32 39 23 20 73 89 50 49 24 22 17 11 5 358 353 347 345 343 342 343 341 340 342 340 341 340 340 338 337 336 337 339 339 338 335 336 335 337 338 336 337 334 330 321 298 280 270 263 258 255 246 235 226 219 219 217 210 209
315 299 343 302 299 282 275 276 288 297 283 276 270 265 261 259 265 266 258 254 259 272 279 291 278 267 62 54 350 19 5 8 11 357 73 36 17 16 15 3 357 349 344 340 336 336 340 339 341 340 336 335 334 335 337 336 335 336 336 336 335 332 330 332 332 331 331 330 331 334 334 331 324 308 288 277 266 258 250 244 235 227 218 214 210 208
240 283 291 288 273 250 270 283 297 320 325 292 263 253 259 269 260 263 263 337 60 96 270 266 307 73 19 27 19 354 11 340 6 335 334 350 357 0 3 353 345 338 334 333 330 334 334 334 333 333 330 330 333 334 333 332 331 333 335 333 328 328 328 327 328 326 326 329 333 332 333 331 329 321 310 292 276 271 263 250 241 235 224 218 213 200
222 225 250 240 256 280 281 293 357 323 271 256 267 123 190 251 261 269 276 59 349 98 226 90 123 75 49 16 18 346 343 337 322 311 235 10 325 345 352 340 335 327 327 320 322 326 325 326 326 325 326 325 327 329 326 331 328 327 329 325 325 328 326 327 326 326 323 327 331 330 328 328 326 322 316 309 296 279 265 249 240 235 227 224 208 210
247 241 250 213 258 267 292 356 305 252 253 289 39 279 79 86 85 106 98 121 148 73 83 115 129 83 78 288 300 314 284 283 281 287 262 240 324 352 335 329 329 333 325 323 321 322 323 322 321 321 326 329 330 328 329 329 334 331 328 330 328 325 326 326 324 325 326 329 330 330 328 327 325 319 316 313 306 292 270 255 253 243 228 216 214 213
239 242 239 247 227 320 223 223 245 254 120 307 103 163 312 91 119 91 94 127 1 297 339 4 200 150 188 261 240 261 272 275 286 270 232 232 45 342 326 320 318 319 315 315 315 316 323 326 325 326 326 327 329 327 328 326 332 331 325 327 326 324 324 322 322 321 325 330 330 331 329 328 325 322 318 316 312 300 280 265 251 248 236 225 229 228
231 236 202 266 221 243 229 215 244 320 310 266 236 311 109 147 125 130 207 153 109 307 262 249 241 179 214 242 244 256 264 274 284 292 177 86 323 266 262 285 293 295 298 299 303 306 310 312 314 320 321 324 326 327 325 331 333 327 323 323 323 323 322 323 322 323 325 325 326 326 325 323 320 316 314 313 310 298 285 274 261 252 236 232 230 224
206 211 213 232 249 226 247 264 266 258 253 314 194 271 308 216 155 263 125 261 117 341 260 195 226 214 208 229 237 256 262 302 320 308 200 177 236 267 263 253 272 276 279 291 296 298 305 307 312 312 314 318 317 317 324 329 329 324 320 321 322 324 321 321 320 323 324 321 322 321 320 318 316 314 310 309 304 294 286 276 268 254 217 223 229 228
210 213 218 226 260 257 254 252 262 264 261 133 234 217 265 180 195 244 132 256 146 318 259 189 223 228 210 216 235 232 320 315 296 300 234 214 285 281 290 286 272 277 286 288 296 304 306 309 310 304 307 311 311 317 329 326 323 321 318 318 321 320 318 317 319 322 321 318 315 314 315 316 316 313 309 304 297 290 282 273 261 253 222 224 226 232
101 199 204 235 229 237 265 270 266 250 249 211 195 251 227 84 206 134 294 285 137 258 222 196 213 232 230 219 216 199 234 277 294 295 299 299 277 278 273 283 290 287 285 289 291 291 303 312 310 302 300 306 306 317 324 320 316 313 313 315 317 316 314 316 318 318 312 309 311 314 314 314 314 311 308 302 296 291 274 267 266 248 231 233 221 223
325 323 140 203 236 254 254 265 292 295 285 192 203 244 269 251 116 221 257 263 328 195 215 199 215 230 224 225 207 199 226 220 243 265 284 294 303 291 283 267 271 282 289 287 284 294 306 302 296 291 293 295 301 310 312 309 308 306 309 311 311 310 311 314 317 314 310 310 317 316 314 312 310 307 303 294 288 285 280 262 248 244 235 231 230 218
285 134 298 186 220 235 241 250 250 263 230 160 259 202 242 65 229 239 232 170 211 272 244 195 218 228 226 219 223 224 238 242 251 267 281 284 284 283 281 286 290 292 288 287 289 295 291 287 283 285 287 287 298 305 306 306 302 304 307 307 301 303 308 312 313 310 308 314 314 311 310 311 308 302 295 292 286 280 269 261 245 237 233 230 221 220
218 162 223 221 227 319 216 245 278 261 303 109 287 348 127 133 228 248 303 290 233 246 254 249 215 237 224 241 234 237 245 258 255 259 263 271 278 283 288 292 295 296 299 303 306 308 317 308 300 292 287 290 290 290 291 297 293 292 296 291 295 307 310 313 306 304 310 312 309 307 307 305 304 300 296 287 277 265 265 255 236 234 223 222 222 223
240 272 256 261 202 250 222 234 216 210 207 219 113 205 257 245 261 277 283 289 251 217 239 245 241 237 234 230 238 246 243 251 268 267 267 267 268 277 283 286 288 292 291 289 284 289 304 292 289 294 295 292 285 280 282 284 289 289 287 287 305 313 310 304 301 315 313 307 305 305 303 304 302 300 293 283 274 259 256 248 228 225 216 213 212 217
215 193 215 244 263 213 205 232 249 170 324 287 272 264 259 271 274 235 220 237 274 272 227 239 262 259 237 231 233 237 257 249 254 261 270 271 279 280 281 285 288 290 290 290 291 296 302 290 293 297 298 299 301 298 287 277 284 289 287 292 318 308 303 306 318 315 307 305 303 301 301 301 299 296 295 284 267 259 252 243 223 224 218 209 215 213
311 184 11 32 252 250 242 239 266 299 292 282 276 273 274 279 283 250 220 253 245 259 263 258 264 265 254 221 220 247 243 257 266 270 268 277 282 283 284 285 284 283 283 283 284 288 286 286 285 287 289 293 292 295 303 296 287 289 291 310 317 309 312 316 312 307 302 300 297 295 298 298 294 290 286 281 263 251 247 242 227 222 217 206 215 214
248 215 132 228 269 281 266 260 244 250 261 267 269 276 279 239 255 277 273 246 266 276 278 259 250 252 243 212 216 238 256 262 268 273 281 286 281 281 283 284 284 282 283 285 284 293 296 291 288 285 287 289 290 295 296 294 293 288 300 310 315 315 313 308 304 300 297 292 293 296 295 293 292 291 291 282 271 252 248 239 231 225 223 211 210 212
279 167 209 238 255 240 263 265 263 247 245 261 268 275 276 284 283 271 256 263 268 269 265 272 246 245 240 248 239 248 263 270 270 279 287 282 280 281 283 284 285 288 282 278 282 289 287 282 281 285 287 285 286 293 293 290 290 293 302 307 311 315 313 305 300 299 296 292 293 292 292 291 289 286 286 285 273 261 252 238 227 228 224 215 209 209
232 86 217 172 219 250 260 266 268 268 271 268 263 259 262 267 278 283 279 279 275 271 273 280 194 239 232 257 325 296 283 277 275 275 279 283 283 282 281 283 282 281 285 288 289 291 281 285 284 282 285 284 288 292 290 285 287 292 300 305 308 311 306 299 298 296 291 289 290 282 286 284 281 284 284 283 281 263 251 246 234 230 237 228 217 211
185 242 241 222 261 260 257 262 261 276 271 269 273 266 251 245 238 261 283 288 278 277 303 306 295 268 251 291 306 293 278 286 289 286 279 278 280 283 286 286 286 286 285 284 290 286 284 280 279 283 284 284 290 294 291 292 291 291 296 302 302 304 296 293 294 291 287 284 283 284 284 281 279 273 276 278 279 280 271 246 240 235 231 243 221 224
221 240 232 233 234 254 256 255 251 252 270 265 274 283 297 277 239 262 281 303 340 32 19 358 323 317 312 312 311 280 275 277 281 287 281 278 278 281 282 286 288 288 287 292 294 289 285 284 284 285 282 283 291 291 292 292 292 294 300 299 294 293 287 285 285 283 283 287 284 285 290 285 282 278 272 266 267 268 272 277 253 243 243 241 238 226